Flag for U.S.A. Weather past 2 weeks in Pasadena, California, U.S.A.

Now
73 °F

Clear.


Feels Like: 76 °F
Forecast: 69 / 92 °F
Wind: 6 mph from Southeast

Location: Burbank-Glendale-Pasadena Airport

Current Time: Jul 30, 2014 at 11:19:28 PM

Latest Report: Jul 30, 2014 at 10:53 PM


Visibility: 10 mi

Pressure: 29.89 "Hg

Humidity: 62%

Dew point: 59 °F

Location of PasadenaLocation

Historic Weather in Pasadena — Graph

°F

Pasadena temperature yesterday

Maximum temperature yesterday: 91 °F (at 3:53 PM)
Minimum temperature yesterday: 71 °F (at 4:53 AM)
Average temperature yesterday: 79 °F

Past Weeks' High & Low Weather Summary

 TemperatureHumidityPressure
High97 °F (Jul 24, 3:53 PM)87% (Jul 19, 5:53 AM)30.03 "Hg (Jul 19, 5:53 AM)
Low62 °F (Jul 18, 4:53 AM)15% (Jul 27, 3:53 PM)29.70 "Hg (Jul 24, 6:53 PM)
Average75 °F55%29.93 "Hg
* Reported Jul 15 9:53 PM — Jul 30 9:53 PM, Pasadena, Weather by CustomWeather, © 2014

Note: Actual official high and low records may vary slightly from our data, if they occured in-between our weather recording intervals... More about our weather records

Advertising

Pasadena weather history for previous 24 hours

 ConditionsComfort  
Time TempWeatherWind HumidityBarometerVisibility
9:53 PM
Jul 30
74 °FClear.7 mph60%29.89 "Hg10 mi
8:53 PM77 °FSunny.7 mph50%29.88 "Hg10 mi
7:53 PM80 °FSunny.10 mph44%29.86 "Hg10 mi
6:53 PM82 °FSunny.6 mph41%29.85 "Hg10 mi
5:53 PM85 °FSunny.9 mph35%29.85 "Hg10 mi
4:53 PM87 °FSunny.8 mph31%29.85 "Hg10 mi
3:53 PM89 °FSunny.10 mph31%29.86 "Hg10 mi
2:53 PM92 °FSunny.9 mph29%29.87 "Hg10 mi
1:53 PM92 °FSunny.9 mph31%29.88 "Hg10 mi
12:53 PM90 °FSunny.6 mph33%29.90 "Hg10 mi
11:53 AM88 °FSunny.6 mph36%29.91 "Hg10 mi
10:53 AM84 °FSunny.3 mph41%29.92 "Hg10 mi
9:53 AM80 °FSunny.6 mph44%29.93 "Hg10 mi
8:53 AM77 °FSunny.No wind50%29.94 "Hg10 mi
7:53 AM74 °FSunny.5 mph57%29.93 "Hg10 mi
6:53 AM72 °FClear.No wind61%29.92 "Hg10 mi
5:53 AM72 °FClear.No wind61%29.91 "Hg10 mi
4:53 AM72 °FClear.No wind61%29.90 "Hg10 mi
3:53 AM72 °FClear.No wind61%29.90 "Hg10 mi
2:53 AM72 °FClear.No wind61%29.91 "Hg10 mi
1:53 AM72 °FClear.5 mph61%29.92 "Hg10 mi
12:53 AM72 °FClear.5 mph61%29.92 "Hg10 mi
11:53 PM
Jul 29
73 °FClear.12 mph59%29.93 "Hg10 mi
Weather by CustomWeather, © 2014

See weather overviewHow to use our weather pages